Regional Weather Roundup
Issued by NWS Bismarck, ND

Home | Current Version | Previous Version | Text Only | Print | Product List | Glossary On
Versions: 1 2 3 4 5 6 7 8 9 10 11 12 13 14 15 16 17 18 19 20 21 22 23 24 25 26 27 28 29 30 31 32 33 34 35 36 37 38 39 40 41 42 43 44 45 46 47 48 49 50
000
ASUS43 KBIS 300320
RWRBIS

NWR BROADCAST TEXT
NATIONAL WEATHER SERVICE BISMARCK ND
1000 PM CDT FRI AUG 29 2014

NOTE: "FAIR" INDICATES FEW OR NO CLOUDS BELOW 12,000 FEET WITH NO
SIGNIFICANT WEATHER AND/OR OBSTRUCTIONS TO VISIBILITY.


CITY           SKY/WX    TMP DP  RH WIND       PRES   REMARKS
WILLISTON      CLEAR     61  50  67 E6        29.96R
MINOT          CLEAR     55  48  77 CALM      29.97R
MINOT AFB      CLEAR     54  52  94 S3        29.96R
BISMARCK       CLEAR     59  55  87 E5        29.98R
DICKINSON      CLEAR     57  50  77 E6        29.98R
GARRISON         N/A     56  52  86 CALM      29.98R
HETTINGER ARPT CLEAR     56  51  84 NE6       30.00R
JAMESTOWN      CLOUDY    61  55  81 N10       29.93S
BEACH            N/A     54  54 100 SE6       30.00R
CARRINGTON     FAIR      55  55 100 N5        29.97R
CROSBY         FAIR      52  50  93 SE7       29.97R
HARVEY         FAIR      54  54 100 N3        29.97S
HAZEN          FAIR      52  50  93 S6        29.99R
LINTON         FAIR      55  55 100 N6        29.97R
MANDAN         FAIR      57  54  88 E6        29.99R
OAKES            N/A     61  59  94 N16G23    29.90R
RUGBY          FAIR      54  50  87 E3        29.97S
STANLEY        FAIR      54  54 100 CALM      29.98S
TIOGA          FAIR      50  50 100 CALM      30.01R
WATFORD CITY   FAIR      55  50  82 SE8       29.96R
$$

CITY           SKY/WX    TMP DP  RH WIND       PRES   REMARKS
GRAND FORKS    CLOUDY    63  55  75 N15       29.90R
GRAND FORKS AF CLOUDY    61  58  91 N12       29.92R
DEVILS LAKE    CLEAR     55  48  76 N6        29.95R
FARGO          CLOUDY    63  57  81 N18       29.85R
CANDO          FAIR      52  50  93 CALM      29.98R
CAVALIER       CLOUDY    59  55  88 N9        29.94S
GRAFTON        FAIR      57  55  94 N8        29.93R
GWINNER        CLOUDY    63  61  94 N20       29.89S
LANGDON        FAIR      50  48  93 N5        29.96S
ROLLA          FAIR      46  46 100 NW3       29.99R
WALHALLA       FAIR      54  54 100 NW3       29.96R
$$

CITY           SKY/WX    TMP DP  RH WIND       PRES   REMARKS
ABERDEEN       CLOUDY    62  58  86 N20G25    29.89R
MOBRIDGE       CLEAR     58  56  93 NW3       29.93R
BUFFALO          N/A     61  52  72 NE7       29.94R
RAPID CITY     PTCLDY    61  53  75 NE9       30.02R
GLASGOW        CLEAR     62  53  72 SE10      29.91R
SIDNEY         CLEAR     61  52  72 CALM      29.97S
WOLF POINT     CLEAR     62  52  69 E3        29.92S
GLENDIVE       CLEAR     61  52  72 E8        29.97S
MILES CITY     CLEAR     66  50  56 E6        29.95R
BAKER          CLEAR     56  51  84 E3        29.99S
$$

CITY           SKY/WX    TMP DP  RH WIND       PRES   REMARKS
BILLINGS       PTCLDY    69  54  58 E6        29.92S
GREAT FALLS    CLEAR     68  43  40 S6        29.80F
REGINA         PTCLDY    57  48  72 E7        29.93S
ESTEVAN        PTCLDY    55  48  76 SE2       29.97R
$$



USA.gov is the U.S. government's official web portal to all federal, state and local government web resources and services.